GAOFEN-11 01

Last updated on Mon Sep 07 2026 00:02:46 GMT+0000 (Coordinated Universal Time)

1 43585U 18063A 26249.63300219 .00015122 00000+0 20690-3 0 9990 2 43585 97.1211 316.3714 0004701 48.7834 311.3827 15.57498345453018
UTC large
Height (km)
Speed (km/s)
/
Latitude / Longitude
Inclination (degrees)
Orbital Period (minutes)
Azimuth
Elevation
Range (km)
Doppler Factor

Next 0 passes for location: London (51.5072 / 0.1276)

No passes found over London.
GAOFEN-11 01